Starlink 6077

operational
NORAD ID: 56097 Int'l Des: 2023-046 Owner: SPXS Country: US Constellation: starlink
LEOCIRCULAR

Über Starlink 6077

Beschreibung wird geladen...

Live-Position

3D-Globus wird geladen...

Nächste Überflüge

Höhenverlauf

Altitude vs Time

uPlot chart will show altitude changes over time

Zweizeiliger Elementsatz

1 56097U 23046E 25258.28163327 -.00000273 00000-0 -51436-5 0 9994
2 56097 43.0049 340.2229 0001358 275.9017 84.1670 15.02539144136278
Epoch: 15. Sept. 2025 • Age: 27 hours

Aktueller Status

Höhe 560.3 km
Geschwindigkeit 7.58 km/s
Subsatellitenpunkt -10.08°S, 179.68°W
Startdatum 29. März 2023
Alter 2.4 years
Typ internet

Technische Details

Klassifizierung Payload
Masse 305.00 kg
Trockenmasse 290.00 kg
Gesamtmasse 305.00 kg
Länge 0.20 m
Durchmesser 2.80 m
Spannweite 9.00 m
Form Box + pan
Hersteller SPXS
Bus-Typ Starlink
Phasenstatus In Orbit
Besitzer/Staat SPXS/US

Große Konstellationen

Loading constellations...